x

Yucatan Basin - 120 Nm Ese Of Cozumel, Mx (42056) Wave Buoy

10:50am - Fri 22nd May 2015 All times are CDT. -5 hours from GMT.

  • Sig Wave height 1.6ft
  • Swell Direction
  • Peak Period 7s
  • Average Period 4s
  • Wind
    11mph, 13mph gusts
  • Sea Temp 83°f
  • Air Temp 82°f
  • Sea Pressure 1017.8mb
  •  Yucatan Basin - 120 Nm Ese Of Cozumel, Mx
  •  Yucatan Basin - 120 Nm Ese Of Cozumel, Mx

More Historic Weather Station data

Upgrade to MSW Pro to gain access to the past 30 days of data for over 8000 Wavebouys and Weather Stations around the globe.

Join Pro

Comparision Forecast

View Surf forecast
   
Fri 05/22 10:50am 1.6ft 7s 4s 11 13 mph 1017.8mb 83f 82f
9:50am 1.6ft 7s 4s 9 11 mph 1017.6mb 83f 82f
8:50am 1.6ft 7s 4s 11 13 mph 1016.9mb 83f 82f
7:50am 1.3ft 7s 4s 9
mph
1016.8mb 83f 82f
6:50am 1.3ft 7s 4s 9 11 mph 1016.3mb 83f 82f
5:50am 1.3ft 8s 4s 9 11 mph 1015.8mb 83f 82f
4:50am 1.3ft 7s 4s 7 9 mph 1015.6mb 83f 82f
3:50am 1.3ft 7s 4s 7 9 mph 1015.3mb 83f 82f
2:50am 1.3ft 6s 4s 7 9 mph 1015.2mb 83f 82f
1:50am 1.3ft 7s 4s 11 13 mph 1015.5mb 83f 82f
12:50am 1.3ft 7s 4s 9 11 mph 1016.3mb 83f 82f
Thu 05/21 11:50pm 1.3ft 7s 4s 9
mph
1016.7mb 83f 82f
10:50pm 1.6ft 8s 5s 9 11 mph 1016.6mb 83f 82f
9:50pm 1.6ft 7s 4s 9 11 mph 1016.2mb 83f 82f
8:50pm 1.6ft 7s 4s 9 11 mph 1015.2mb 83f 82f
7:50pm 1.6ft 7s 4s 9 13 mph 1014.7mb 83f 82f
6:50pm 1.6ft 7s 4s 9 11 mph 1014.3mb 83f 83f
5:50pm 1.6ft 7s 5s 9 11 mph 1014.2mb 83f 83f
4:50pm 1.6ft 8s 4s 7 9 mph 1014mb 84f 83f
3:50pm 1.6ft 8s 4s 9
mph
1014.5mb 83f 82f
2:50pm 2ft 7s 5s 9 11 mph 1014.9mb 84f 82f
1:50pm 2ft 7s 5s 9 13 mph 1015.1mb 84f 82f
12:50pm 2ft 8s 5s 9 11 mph 1015.7mb 83f 82f
11:50am 2ft 8s 5s 9 11 mph 1016mb 83f 82f
10:50am 2ft 8s 5s 7 9 mph 1016.3mb 83f 82f
9:50am 1.6ft 7s 5s 9 11 mph 1016.2mb 83f 82f
8:50am 2ft 7s 5s 9
mph
1016mb 83f 82f
7:50am 2ft 7s 5s 9 11 mph 1015.5mb 83f 82f
6:50am 2ft 8s 5s 9 11 mph 1014.8mb 83f 82f
5:50am 1.6ft 8s 5s 7 9 mph 1014.3mb 83f 81f
4:50am 2ft 8s 5s 7 9 mph 1014.1mb 83f 81f
3:50am 2ft 8s 5s 7 9 mph 1014.1mb 83f 81f
2:50am 2ft 8s 5s 7 9 mph 1014.3mb 83f 81f
1:50am 2ft 8s 5s 7 9 mph 1014.4mb 83f 82f
12:50am 2ft 8s 5s 9 11 mph 1015.1mb 83f 82f
Wed 05/20 11:50pm 2ft 7s 5s 9 11 mph 1015.8mb 83f 82f
10:50pm 2ft 8s 5s 9
mph
1015.7mb 83f 82f
9:50pm 2ft 8s 5s 9 11 mph 1015.4mb 83f 82f
8:50pm 2ft 8s 5s 9 11 mph 1014.7mb 84f 82f
7:50pm 2ft 8s 5s 9 11 mph 1014mb 83f 82f
6:50pm 2ft 8s 5s 9 11 mph 1013.8mb 84f 83f
5:50pm 2.5ft 8s 5s 9
mph
1013.7mb 84f 83f
4:50pm 2.5ft 8s 5s 9 11 mph 1013.9mb 84f 83f
3:50pm 2ft 8s 5s 9 11 mph 1013.8mb 84f 82f
2:50pm 2.5ft 8s 5s 9 13 mph 1014.3mb 84f 82f
1:50pm 2.5ft 8s 5s 9 11 mph 1014.8mb 84f 82f
12:50pm 2.5ft 8s 5s 11 13 mph 1014.9mb 84f 82f
11:50am 2.5ft 8s 5s 9 11 mph 1015.3mb 84f 82f
10:50am 2ft 8s 5s 7 9 mph 1015.5mb 84f 82f
9:50am 2ft 8s 5s 9 11 mph 1015.5mb 83f 82f
8:50am 2.5ft 8s 5s 7 9 mph 1015.3mb 83f 82f
7:50am 2.5ft 7s 5s 9
mph
1014.7mb 83f 82f
6:50am 2.5ft 8s 5s 7 9 mph 1014.4mb 83f 82f
5:50am 2.5ft 8s 5s 7 9 mph 1013.9mb 83f 82f
4:50am 2.5ft 8s 5s 7 9 mph 1013.5mb 83f 82f
3:50am 2.5ft 7s 5s 7 9 mph 1013.6mb 83f 82f
2:50am 2.5ft 8s 5s 9
mph
1013.9mb 83f 82f
1:50am 2.5ft 8s 5s 9
mph
1014.5mb 83f 82f
12:50am 3ft 8s 5s 9 11 mph 1015.1mb 83f 82f
Tue 05/19 11:50pm 3ft 8s 5s 7 9 mph 1015.5mb 83f 82f
10:50pm 3ft 8s 5s 7 9 mph 1015.9mb 83f 82f
9:50pm 3.5ft 5s 5s 9 11 mph 1015.6mb 83f 82f
8:50pm 3ft 5s 5s 9 11 mph 1015.1mb 83f 82f
7:50pm 2.5ft 8s 5s 9 11 mph 1014.8mb 83f 82f
6:50pm 3.5ft 5s 5s 9 11 mph 1014.5mb 83f 82f
5:50pm 3.5ft 5s 5s 11 13 mph 1014.4mb 84f 83f
4:50pm 3.5ft 5s 5s 9 11 mph 1014.8mb 84f 83f
3:50pm 3.5ft 6s 5s 9 11 mph 1015.2mb 84f 83f
2:50pm 3.5ft 6s 5s 9 11 mph 1015.5mb 84f 82f
1:50pm 3.5ft 6s 5s 11 13 mph 1015.8mb 83f 82f
12:50pm 3.5ft 7s 5s 13 16 mph 1016.2mb 83f 82f
11:50am 3ft 7s 5s 13 18 mph 1016.7mb 83f 82f
10:50am 3.5ft 7s 5s 13 16 mph 1016.8mb 83f 82f
9:50am 3.5ft 6s 5s 11 16 mph 1016.7mb 83f 82f
8:50am 3.5ft 6s 5s 11 16 mph 1016.3mb 83f 82f
7:50am 3.5ft 7s 5s 11 13 mph 1016mb 83f 82f
6:50am 3.5ft 8s 5s 11 13 mph 1015.5mb 83f 81f
5:50am 3.5ft 6s 5s 11 13 mph 1015.1mb 83f 81f
4:50am 3.5ft 7s 5s 13 16 mph 1014.7mb 83f 81f
3:50am 3.5ft 7s 5s 11 13 mph 1014.6mb 83f 81f
2:50am 3.5ft 6s 5s 9 11 mph 1015mb 83f 81f
1:50am 3.5ft 6s 5s 9 11 mph 1015.7mb 83f 82f
12:50am 3.5ft 5s 5s 9 11 mph 1016.9mb 83f 82f
Mon 05/18 11:50pm 3.5ft 7s 5s 11 13 mph 1017.8mb 83f 82f
10:50pm 3.5ft 6s 5s 11 13 mph 1018mb 83f 82f
9:50pm 3.5ft 7s 5s 11 13 mph 1017.7mb 83f 82f
8:50pm 3.5ft 8s 5s 13 16 mph 1017.2mb 83f 82f
7:50pm 3.5ft 8s 5s 13 16 mph 1016.6mb 83f 82f
6:50pm 3.5ft 6s 5s 11 13 mph 1016.5mb 83f 83f
5:50pm 3.5ft 7s 5s 13 16 mph 1016.2mb 83f 83f